| time (UTC) | temp C | wind direction | speed KPH | gust KPH | rain 1hr cm | rain 24hr cm | rain mn cm | humidity % | barometer mb |
| 20260503015318 | 19 | 119 | 0.0 | 1.6 | 0.00 | 0.00 | 0.00 | 12 | 1015.1 |
| 20260503014812 | 20 | 119 | 0.0 | 0.0 | 0.00 | 0.00 | 0.00 | 11 | 1015.1 |
| 20260503013800 | 20 | 119 | 0.0 | 0.0 | 0.00 | 0.00 | 0.00 | 11 | 1015.1 |
| 20260503012747 | 20 | 119 | 0.0 | 0.0 | 0.00 | 0.00 | 0.00 | 11 | 1015.0 |
| 20260503012243 | 20 | 119 | 0.0 | 0.0 | 0.00 | 0.00 | 0.00 | 11 | 1015.0 |
| 20260503011736 | 20 | 119 | 0.0 | 0.0 | 0.00 | 0.00 | 0.00 | 10 | 1015.0 |
| 20260503010723 | 20 | 119 | 0.0 | 0.0 | 0.00 | 0.00 | 0.00 | 10 | 1015.0 |
| 20260503010218 | 20 | 119 | 0.0 | 0.0 | 0.00 | 0.00 | 0.00 | 10 | 1014.8 |
| 20260503005712 | 21 | 119 | 0.0 | 0.0 | 0.00 | 0.00 | 0.00 | 10 | 1014.7 |
| 20260503005206 | 21 | 119 | 0.0 | 1.6 | 0.00 | 0.00 | 0.00 | 9 | 1014.8 |
| 20260503004700 | 21 | 119 | 0.0 | 3.2 | 0.00 | 0.00 | 0.00 | 9 | 1014.7 |
| 20260503004155 | 21 | 119 | 0.0 | 3.2 | 0.00 | 0.00 | 0.00 | 9 | 1014.8 |
| 20260503003649 | 22 | 121 | 0.0 | 3.2 | 0.00 | 0.00 | 0.00 | 9 | 1015.0 |
| 20260503002636 | 22 | 120 | 0.0 | 0.0 | 0.00 | 0.00 | 0.00 | 9 | 1015.0 |
| 20260503002130 | 22 | 120 | 0.0 | 3.2 | 0.00 | 0.00 | 0.00 | 8 | 1015.0 |
| 20260503001624 | 22 | 118 | 0.0 | 1.6 | 0.00 | 0.00 | 0.00 | 8 | 1015.1 |
| 20260503001118 | 22 | 117 | 0.0 | 1.6 | 0.00 | 0.00 | 0.00 | 6 | 1015.1 |
| 20260503000611 | 22 | 117 | 0.0 | 1.6 | 0.00 | 0.00 | 0.00 | 7 | 1015.1 |
| 20260503000108 | 22 | 117 | 0.0 | 1.6 | 0.00 | 0.00 | 0.00 | 8 | 1015.2 |
| 20260502235601 | 23 | 117 | 0.0 | 1.6 | 0.00 | 0.00 | 0.00 | 7 | 1015.2 |
| 20260502235054 | 23 | 116 | 0.0 | 0.0 | 0.00 | 0.00 | 0.00 | 7 | 1015.3 |
| 20260502234042 | 23 | 117 | 0.0 | 1.6 | 0.00 | 0.00 | 0.00 | 7 | 1015.4 |
| 20260502233535 | 23 | 109 | 0.0 | 1.6 | 0.00 | 0.00 | 0.00 | 8 | 1015.4 |
| 20260502233030 | 23 | 109 | 0.0 | 0.0 | 0.00 | 0.00 | 0.00 | 7 | 1015.4 |
| 20260502232017 | 23 | 105 | 0.0 | 0.0 | 0.00 | 0.00 | 0.00 | 7 | 1015.5 |
| 20260502231511 | 23 | 106 | 0.0 | 0.0 | 0.00 | 0.00 | 0.00 | 7 | 1015.4 |
| 20260502231005 | 24 | 105 | 0.0 | 3.2 | 0.00 | 0.00 | 0.00 | 6 | 1015.5 |
| 20260502230501 | 23 | 105 | 0.0 | 3.2 | 0.00 | 0.00 | 0.00 | 7 | 1015.5 |
| 20260502225955 | 23 | 109 | 0.0 | 0.0 | 0.00 | 0.00 | 0.00 | 7 | 1015.5 |
| 20260502225449 | 24 | 111 | 0.0 | 1.6 | 0.00 | 0.00 | 0.00 | 8 | 1015.5 |
| 20260502224942 | 23 | 111 | 0.0 | 4.8 | 0.00 | 0.00 | 0.00 | 9 | 1015.7 |
| 20260502224437 | 23 | 111 | 0.0 | 4.8 | 0.00 | 0.00 | 0.00 | 8 | 1015.7 |
| 20260502223929 | 23 | 113 | 0.0 | 4.8 | 0.00 | 0.00 | 0.00 | 8 | 1015.7 |
| 20260502223423 | 23 | 113 | 0.0 | 0.0 | 0.00 | 0.00 | 0.00 | 8 | 1015.7 |
| 20260502222918 | 23 | 113 | 0.0 | 4.8 | 0.00 | 0.00 | 0.00 | 7 | 1015.7 |
| 20260502222411 | 23 | 113 | 0.0 | 4.8 | 0.00 | 0.00 | 0.00 | 6 | 1015.9 |
| 20260502221905 | 23 | 117 | 0.0 | 0.0 | 0.00 | 0.00 | 0.00 | 7 | 1015.9 |
| 20260502221359 | 24 | 118 | 0.0 | 6.4 | 0.00 | 0.00 | 0.00 | 8 | 1016.0 |
| 20260502215843 | 24 | 116 | 0.0 | 3.2 | 0.00 | 0.00 | 0.00 | 7 | 1016.4 |
| 20260502215336 | 24 | 115 | 0.0 | 1.6 | 0.00 | 0.00 | 0.00 | 8 | 1016.5 |
| 20260502214831 | 25 | 80 | 0.0 | 0.0 | 0.00 | 0.00 | 0.00 | 8 | 1016.6 |
| 20260502214325 | 25 | 60 | 0.0 | 0.0 | 0.00 | 0.00 | 0.00 | 8 | 1016.7 |
| 20260502213819 | 23 | 60 | 0.0 | 4.8 | 0.00 | 0.00 | 0.00 | 9 | 1016.8 |
| 20260502213312 | 23 | 59 | 1.6 | 8.0 | 0.00 | 0.00 | 0.00 | 9 | 1016.8 |
| 20260502212805 | 23 | 78 | 1.6 | 8.0 | 0.00 | 0.00 | 0.00 | 10 | 1016.9 |
| 20260502212300 | 23 | 52 | 0.0 | 6.4 | 0.00 | 0.00 | 0.00 | 10 | 1017.1 |
| 20260502211754 | 23 | 82 | 0.0 | 6.4 | 0.00 | 0.00 | 0.00 | 10 | 1017.2 |
| 20260502211247 | 23 | 121 | 0.0 | 4.8 | 0.00 | 0.00 | 0.00 | 12 | 1017.3 |
| 20260502210742 | 22 | 121 | 0.0 | 4.8 | 0.00 | 0.00 | 0.00 | 10 | 1017.3 |
| 20260502210235 | 23 | 124 | 0.0 | 4.8 | 0.00 | 0.00 | 0.00 | 11 | 1017.4 |
| 20260502205730 | 23 | 126 | 1.6 | 8.0 | 0.00 | 0.00 | 0.00 | 12 | 1017.4 |
| 20260502205225 | 23 | 244 | 1.6 | 12.9 | 0.00 | 0.00 | 0.00 | 12 | 1017.5 |
| 20260502204719 | 23 | 254 | 0.0 | 12.9 | 0.00 | 0.00 | 0.00 | 11 | 1017.5 |
| 20260502204213 | 24 | 246 | 0.0 | 3.2 | 0.00 | 0.00 | 0.00 | 12 | 1017.8 |
| 20260502203201 | 22 | 256 | 0.0 | 3.2 | 0.00 | 0.00 | 0.00 | 14 | 1017.8 |
| 20260502202148 | 23 | 245 | 0.0 | 1.6 | 0.00 | 0.00 | 0.00 | 11 | 1017.9 |
| 20260502201136 | 22 | 277 | 0.0 | 3.2 | 0.00 | 0.00 | 0.00 | 14 | 1018.0 |
| 20260502200630 | 22 | 288 | 0.0 | 3.2 | 0.00 | 0.00 | 0.00 | 11 | 1018.0 |
| 20260502200124 | 21 | 294 | 1.6 | 11.3 | 0.00 | 0.00 | 0.00 | 11 | 1018.0 |
| 20260502195621 | 21 | 294 | 1.6 | 11.3 | 0.00 | 0.00 | 0.00 | 11 | 1018.1 |
| 20260502195119 | 22 | 263 | 0.0 | 3.2 | 0.00 | 0.00 | 0.00 | 12 | 1018.1 |
| 20260502194620 | 22 | 190 | 0.0 | 4.8 | 0.00 | 0.00 | 0.00 | 13 | 1018.2 |
| 20260502194117 | 22 | 237 | 0.0 | 4.8 | 0.00 | 0.00 | 0.00 | 12 | 1018.2 |
| 20260502193617 | 21 | 275 | 0.0 | 4.8 | 0.00 | 0.00 | 0.00 | 15 | 1018.3 |
| 20260502193118 | 21 | 276 | 0.0 | 4.8 | 0.00 | 0.00 | 0.00 | 17 | 1018.5 |
| 20260502192615 | 20 | 278 | 0.0 | 3.2 | 0.00 | 0.00 | 0.00 | 15 | 1018.6 |
| 20260502192114 | 20 | 279 | 0.0 | 3.2 | 0.00 | 0.00 | 0.00 | 15 | 1018.6 |
| 20260502191116 | 20 | 243 | 0.0 | 3.2 | 0.00 | 0.00 | 0.00 | 17 | 1018.7 |
| 20260502190616 | 20 | 243 | 0.0 | 3.2 | 0.00 | 0.00 | 0.00 | 16 | 1018.8 |
| 20260502190114 | 20 | 244 | 0.0 | 3.2 | 0.00 | 0.00 | 0.00 | 16 | 1018.9 |
| 20260502185114 | 20 | 244 | 0.0 | 6.4 | 0.00 | 0.00 | 0.00 | 16 | 1019.2 |
| 20260502184610 | 19 | 248 | 0.0 | 6.4 | 0.00 | 0.00 | 0.00 | 16 | 1019.2 |
| 20260502184109 | 19 | 257 | 0.0 | 6.4 | 0.00 | 0.00 | 0.00 | 17 | 1019.3 |
| 20260502183109 | 19 | 0 | 0.0 | 6.4 | 0.00 | 0.00 | 0.00 | 16 | 1019.3 |
| 20260502182609 | 19 | 5 | 0.0 | 6.4 | 0.00 | 0.00 | 0.00 | 16 | 1019.5 |
| 20260502182109 | 19 | 49 | 0.0 | 4.8 | 0.00 | 0.00 | 0.00 | 16 | 1019.6 |
| 20260502181609 | 19 | 76 | 0.0 | 1.6 | 0.00 | 0.00 | 0.00 | 17 | 1019.6 |
| 20260502181110 | 18 | 78 | 0.0 | 4.8 | 0.00 | 0.00 | 0.00 | 17 | 1019.7 |
| 20260502180609 | 18 | 78 | 0.0 | 4.8 | 0.00 | 0.00 | 0.00 | 18 | 1019.9 |
| 20260502180110 | 18 | 65 | 0.0 | 3.2 | 0.00 | 0.00 | 0.00 | 18 | 1020.0 |
| 20260502164018 | 16 | 128 | 0.0 | 6.4 | 0.00 | 0.00 | 0.00 | 23 | 1020.6 |
| 20260502163512 | 16 | 145 | 0.0 | 3.2 | 0.00 | 0.00 | 0.00 | 24 | 1020.6 |
| 20260502163008 | 16 | 250 | 0.0 | 3.2 | 0.00 | 0.00 | 0.00 | 26 | 1020.6 |
| 20260502162501 | 15 | 250 | 0.0 | 0.0 | 0.00 | 0.00 | 0.00 | 26 | 1020.6 |
| 20260502161954 | 15 | 251 | 0.0 | 0.0 | 0.00 | 0.00 | 0.00 | 25 | 1020.6 |
| 20260502161448 | 15 | 249 | 0.0 | 0.0 | 0.00 | 0.00 | 0.00 | 26 | 1020.6 |
| 20260502160942 | 15 | 249 | 0.0 | 3.2 | 0.00 | 0.00 | 0.00 | 27 | 1020.7 |
| 20260502160438 | 15 | 249 | 0.0 | 3.2 | 0.00 | 0.00 | 0.00 | 28 | 1020.7 |
| 20260502151842 | 12 | 245 | 0.0 | 1.6 | 0.00 | 0.00 | 0.00 | 33 | 1021.0 |
| 20260502151337 | 12 | 244 | 0.0 | 1.6 | 0.00 | 0.00 | 0.00 | 34 | 1021.1 |
| 20260502150326 | 12 | 244 | 0.0 | 0.0 | 0.00 | 0.00 | 0.00 | 35 | 1021.1 |
| 20260502130607 | 2 | 0 | 0.0 | 0.0 | 0.00 | 0.00 | 0.00 | 62 | 1021.3 |
| 20260502123530 | 2 | 93 | 0.0 | 0.0 | 0.00 | 0.00 | 0.00 | 60 | 1021.1 |
| 20260502123033 | 2 | 93 | 0.0 | 0.0 | 0.00 | 0.00 | 0.00 | 60 | 1021.0 |
| 20260502122519 | 2 | 93 | 0.0 | 0.0 | 0.00 | 0.00 | 0.00 | 60 | 1021.0 |
| 20260502121511 | 2 | 93 | 0.0 | 0.0 | 0.00 | 0.00 | 0.00 | 59 | 1020.8 |
| 20260502121011 | 2 | 93 | 0.0 | 0.0 | 0.00 | 0.00 | 0.00 | 59 | 1020.8 |
| 20260502120510 | 2 | 93 | 0.0 | 0.0 | 0.00 | 0.00 | 0.00 | 59 | 1020.8 |
| 20260502115006 | 2 | 93 | 0.0 | 0.0 | 0.00 | 0.00 | 0.00 | 58 | 1020.8 |
| 20260502112503 | 3 | 93 | 0.0 | 0.0 | 0.00 | 0.00 | 0.00 | 57 | 1020.6 |
| 20260502112002 | 3 | 93 | 0.0 | 0.0 | 0.00 | 0.00 | 0.00 | 56 | 1020.6 |
| 20260502111458 | 3 | 93 | 0.0 | 0.0 | 0.00 | 0.00 | 0.00 | 56 | 1020.7 |
| 20260502110959 | 3 | 93 | 0.0 | 0.0 | 0.00 | 0.00 | 0.00 | 56 | 1020.7 |
| 20260502105958 | 3 | 93 | 0.0 | 0.0 | 0.00 | 0.00 | 0.00 | 56 | 1020.6 |
| 20260502105459 | 3 | 93 | 0.0 | 0.0 | 0.00 | 0.00 | 0.00 | 56 | 1020.7 |
| 20260502104957 | 3 | 93 | 0.0 | 0.0 | 0.00 | 0.00 | 0.00 | 56 | 1020.7 |
| 20260502104459 | 3 | 93 | 0.0 | 0.0 | 0.00 | 0.00 | 0.00 | 56 | 1020.6 |
| 20260502103955 | 3 | 93 | 0.0 | 0.0 | 0.00 | 0.00 | 0.00 | 56 | 1020.6 |
| 20260502103454 | 4 | 93 | 0.0 | 0.0 | 0.00 | 0.00 | 0.00 | 56 | 1020.7 |
| 20260502102952 | 4 | 93 | 0.0 | 0.0 | 0.00 | 0.00 | 0.00 | 56 | 1020.7 |
| 20260502102451 | 4 | 93 | 0.0 | 0.0 | 0.00 | 0.00 | 0.00 | 56 | 1020.7 |
| 20260502101949 | 4 | 93 | 0.0 | 0.0 | 0.00 | 0.00 | 0.00 | 56 | 1020.7 |
| 20260502100948 | 4 | 93 | 0.0 | 0.0 | 0.00 | 0.00 | 0.00 | 55 | 1020.6 |
| 20260502100447 | 4 | 93 | 0.0 | 0.0 | 0.00 | 0.00 | 0.00 | 55 | 1020.4 |
| 20260502091440 | 5 | 92 | 0.0 | 0.0 | 0.00 | 0.00 | 0.00 | 54 | 1020.1 |
| 20260502090942 | 5 | 91 | 0.0 | 0.0 | 0.00 | 0.00 | 0.00 | 54 | 1020.1 |
| 20260502090440 | 5 | 91 | 0.0 | 0.0 | 0.00 | 0.00 | 0.00 | 54 | 1020.0 |
| 20260502071426 | 6 | 90 | 0.0 | 0.0 | 0.00 | 0.00 | 0.00 | 40 | 1020.2 |
| 20260502070925 | 7 | 90 | 0.0 | 0.0 | 0.00 | 0.00 | 0.00 | 39 | 1020.3 |
| 20260502070422 | 7 | 90 | 0.0 | 0.0 | 0.00 | 0.00 | 0.00 | 39 | 1020.3 |
| 20260502065422 | 7 | 90 | 0.0 | 0.0 | 0.00 | 0.00 | 0.00 | 38 | 1020.4 |
| 20260502064920 | 7 | 90 | 0.0 | 0.0 | 0.00 | 0.00 | 0.00 | 38 | 1020.4 |
| 20260502064422 | 7 | 90 | 0.0 | 0.0 | 0.00 | 0.00 | 0.00 | 37 | 1020.4 |
| 20260502063415 | 8 | 90 | 0.0 | 0.0 | 0.00 | 0.00 | 0.00 | 37 | 1020.4 |
| 20260502062407 | 8 | 90 | 0.0 | 0.0 | 0.00 | 0.00 | 0.00 | 37 | 1020.4 |
| 20260502061903 | 8 | 90 | 0.0 | 0.0 | 0.00 | 0.00 | 0.00 | 37 | 1020.6 |
| 20260502061355 | 8 | 90 | 0.0 | 0.0 | 0.00 | 0.00 | 0.00 | 37 | 1020.4 |
| 20260502060850 | 8 | 90 | 0.0 | 0.0 | 0.00 | 0.00 | 0.00 | 36 | 1020.6 |
| 20260502060351 | 8 | 90 | 0.0 | 0.0 | 0.00 | 0.00 | 0.00 | 36 | 1020.4 |
| 20260502055849 | 8 | 90 | 0.0 | 0.0 | 0.00 | 0.00 | 0.00 | 36 | 1020.4 |
| 20260502055347 | 8 | 90 | 0.0 | 0.0 | 0.00 | 0.00 | 0.00 | 36 | 1020.4 |
| 20260502054847 | 8 | 90 | 0.0 | 0.0 | 0.00 | 0.00 | 0.00 | 36 | 1020.3 |
| 20260502054346 | 8 | 90 | 0.0 | 1.6 | 0.00 | 0.00 | 0.00 | 37 | 1020.3 |
| 20260502053846 | 8 | 84 | 0.0 | 1.6 | 0.00 | 0.00 | 0.00 | 36 | 1020.2 |
| 20260502053348 | 8 | 84 | 0.0 | 0.0 | 0.00 | 0.00 | 0.00 | 36 | 1020.2 |
| 20260502052844 | 8 | 84 | 0.0 | 0.0 | 0.00 | 0.00 | 0.00 | 35 | 1020.1 |
| 20260502052343 | 8 | 84 | 0.0 | 0.0 | 0.00 | 0.00 | 0.00 | 34 | 1020.1 |
| 20260502051843 | 8 | 84 | 0.0 | 0.0 | 0.00 | 0.00 | 0.00 | 34 | 1020.1 |
| 20260502051342 | 8 | 84 | 0.0 | 0.0 | 0.00 | 0.00 | 0.00 | 34 | 1020.1 |
| 20260502050841 | 8 | 84 | 0.0 | 0.0 | 0.00 | 0.00 | 0.00 | 34 | 1020.0 |
| 20260502050342 | 8 | 84 | 0.0 | 0.0 | 0.00 | 0.00 | 0.00 | 33 | 1020.1 |
| 20260502045840 | 8 | 84 | 0.0 | 0.0 | 0.00 | 0.00 | 0.00 | 34 | 1020.0 |
| 20260502045341 | 9 | 84 | 0.0 | 0.0 | 0.00 | 0.00 | 0.00 | 33 | 1020.1 |
| 20260502044341 | 9 | 84 | 0.0 | 0.0 | 0.00 | 0.00 | 0.00 | 33 | 1020.0 |
| 20260502043838 | 9 | 84 | 0.0 | 0.0 | 0.00 | 0.00 | 0.00 | 32 | 1020.0 |
| 20260502043340 | 9 | 84 | 0.0 | 0.0 | 0.00 | 0.00 | 0.00 | 32 | 1020.0 |
| 20260502042838 | 9 | 84 | 0.0 | 0.0 | 0.00 | 0.00 | 0.00 | 32 | 1019.9 |
| 20260502042338 | 10 | 84 | 0.0 | 0.0 | 0.00 | 0.00 | 0.00 | 32 | 1019.9 |
| 20260502041838 | 10 | 84 | 0.0 | 0.0 | 0.00 | 0.00 | 0.00 | 32 | 1019.9 |
| 20260502040335 | 10 | 84 | 0.0 | 0.0 | 0.00 | 0.00 | 0.00 | 31 | 1019.7 |
| 20260502035835 | 10 | 84 | 0.0 | 0.0 | 0.00 | 0.00 | 0.00 | 30 | 1019.6 |
| 20260502035334 | 10 | 84 | 0.0 | 0.0 | 0.00 | 0.00 | 0.00 | 30 | 1019.6 |
| 20260502034834 | 10 | 84 | 0.0 | 0.0 | 0.00 | 0.00 | 0.00 | 30 | 1019.6 |
| 20260502034334 | 10 | 84 | 0.0 | 0.0 | 0.00 | 0.00 | 0.00 | 30 | 1019.5 |
| 20260502033836 | 10 | 84 | 0.0 | 0.0 | 0.00 | 0.00 | 0.00 | 29 | 1019.4 |
| 20260502033335 | 10 | 84 | 0.0 | 0.0 | 0.00 | 0.00 | 0.00 | 29 | 1019.3 |
| 20260502032834 | 11 | 84 | 0.0 | 0.0 | 0.00 | 0.00 | 0.00 | 29 | 1019.3 |
| 20260502032336 | 11 | 84 | 0.0 | 0.0 | 0.00 | 0.00 | 0.00 | 28 | 1019.2 |
| 20260502031834 | 11 | 84 | 0.0 | 0.0 | 0.00 | 0.00 | 0.00 | 28 | 1019.0 |
| 20260502031330 | 11 | 84 | 0.0 | 0.0 | 0.00 | 0.00 | 0.00 | 27 | 1019.0 |
| 20260502030830 | 11 | 84 | 0.0 | 0.0 | 0.00 | 0.00 | 0.00 | 27 | 1018.9 |
| 20260502025832 | 12 | 84 | 0.0 | 0.0 | 0.00 | 0.00 | 0.00 | 26 | 1018.8 |
| 20260502025331 | 12 | 84 | 0.0 | 0.0 | 0.00 | 0.00 | 0.00 | 26 | 1018.7 |
| 20260502024830 | 12 | 84 | 0.0 | 0.0 | 0.00 | 0.00 | 0.00 | 26 | 1018.6 |
| 20260502024327 | 12 | 84 | 0.0 | 0.0 | 0.00 | 0.00 | 0.00 | 26 | 1018.5 |
| 20260502023826 | 13 | 86 | 0.0 | 0.0 | 0.00 | 0.00 | 0.00 | 25 | 1018.5 |
| 20260502023324 | 13 | 89 | 0.0 | 0.0 | 0.00 | 0.00 | 0.00 | 25 | 1018.3 |
| 20260502022825 | 13 | 86 | 0.0 | 0.0 | 0.00 | 0.00 | 0.00 | 24 | 1018.3 |
| 20260502022322 | 13 | 0 | 0.0 | 0.0 | 0.00 | 0.00 | 0.00 | 24 | 1018.2 |
| 20260502021822 | 13 | 0 | 0.0 | 0.0 | 0.00 | 0.00 | 0.00 | 24 | 1018.1 |
| 20260502021322 | 14 | 0 | 0.0 | 0.0 | 0.00 | 0.00 | 0.00 | 23 | 1018.1 |
| 20260502020820 | 14 | 86 | 0.0 | 0.0 | 0.00 | 0.00 | 0.00 | 23 | 1018.0 |
| 20260502015819 | 15 | 86 | 0.0 | 0.0 | 0.00 | 0.00 | 0.00 | 23 | 1017.9 |